FW0252 Weather Reports


time (UTC)temp
C
wind
direction
speed
KPH
gust
KPH
rain 1hr
cm
rain 24hr
cm
rain mn
cm
humidity
%
barometer
mb
20260503034544 22 182 0.0 6.4 0.05 0.89 0.89 92 1012.7
20260503034045 22 182 0.0 6.4 0.05 0.89 0.89 92 1012.5
20260503033543 22 165 0.0 8.0 0.08 0.89 0.89 92 1012.4
20260503033043 22 165 0.0 6.4 0.10 0.89 0.89 92 1012.5
20260503032543 22 165 0.0 6.4 0.13 0.86 0.86 92 1011.9
20260503032044 22 165 1.6 6.4 0.41 0.86 0.86 92 1011.5
20260503031546 22 142 0.0 3.2 0.51 0.86 0.86 91 1010.9
20260503031043 22 142 0.0 8.0 0.51 0.86 0.86 92 1010.8
20260503030543 22 142 0.0 8.0 0.51 0.86 0.86 91 1011.3
20260503030047 22 132 0.0 4.8 0.48 0.84 0.84 91 1011.2
20260503025542 22 132 0.0 6.4 0.48 0.84 0.84 91 1011.0
20260503025043 22 132 0.0 6.4 0.48 0.84 0.84 91 1011.2
20260503024542 22 155 0.0 8.0 0.48 0.84 0.84 91 1011.8
20260503024042 22 113 0.0 6.4 0.48 0.84 0.84 90 1011.5
20260503023541 22 113 0.0 8.0 0.46 0.81 0.81 90 1011.2
20260503023042 22 151 1.6 8.0 0.46 0.79 0.79 90 1011.8
20260503022541 23 215 0.0 4.8 0.38 0.71 0.71 90 1012.6
20260503022043 23 217 0.0 4.8 0.13 0.46 0.46 91 1012.5
20260503021542 23 225 0.0 3.2 0.03 0.36 0.36 91 1012.6
20260503021039 23 301 0.0 1.6 0.03 0.36 0.36 91 1012.3
20260503020539 23 301 0.0 3.2 0.03 0.36 0.36 91 1011.9
20260503020039 23 301 0.0 3.2 0.05 0.36 0.36 91 1011.9
20260503015537 23 301 0.0 3.2 0.05 0.36 0.36 91 1011.8
20260503015036 23 301 0.0 0.0 0.05 0.36 0.36 91 1011.6
20260503014536 23 301 0.0 0.0 0.05 0.36 0.36 91 1011.4
20260503014036 23 301 0.0 0.0 0.05 0.36 0.36 91 1011.4
20260503013536 23 301 0.0 0.0 0.05 0.36 0.36 91 1011.5
20260503013036 23 302 0.0 0.0 0.03 0.33 0.33 91 1011.4
20260503012535 23 302 0.0 0.0 0.03 0.33 0.33 91 1011.6
20260503012035 23 301 0.0 0.0 0.03 0.33 0.33 91 1011.8
20260503011535 23 301 0.0 0.0 0.03 0.33 0.33 91 1011.6
20260503011035 23 301 0.0 0.0 0.03 0.33 0.33 91 1011.5
20260503010535 23 301 0.0 0.0 0.03 0.33 0.33 91 1011.6
20260503010037 23 301 0.0 3.2 0.00 0.30 0.30 91 1011.5
20260503005535 23 301 0.0 3.2 0.00 0.30 0.30 91 1011.5
20260503005034 23 301 0.0 0.0 0.00 0.30 0.30 91 1011.5
20260503004533 23 301 0.0 0.0 0.00 0.30 0.30 91 1011.3
20260503004033 23 302 0.0 0.0 0.00 0.30 0.30 91 1011.3
20260503003532 23 301 0.0 0.0 0.00 0.30 0.30 91 1011.3
20260503003036 23 302 0.0 0.0 0.00 0.30 0.30 91 1011.3
20260503002532 23 301 0.0 0.0 0.00 0.30 0.30 91 1011.3
20260503002032 23 302 0.0 0.0 0.00 0.30 0.30 91 1011.4
20260503001532 23 301 0.0 3.2 0.00 0.30 0.30 91 1011.3
20260503001032 23 302 0.0 3.2 0.00 0.30 0.30 91 1011.3
20260503000531 23 302 0.0 3.2 0.03 0.30 0.30 91 1011.2
20260503000033 23 302 0.0 0.0 0.05 0.30 0.30 91 1011.2
20260502235531 23 302 0.0 3.2 0.30 0.30 0.30 91 1011.2
20260502235031 23 302 0.0 3.2 0.30 0.30 0.30 90 1011.3
20260502234546 23 302 0.0 0.0 0.30 0.30 0.30 90 1011.2
20260502234031 23 301 0.0 0.0 0.30 0.30 0.30 90 1011.3
20260502233531 23 302 0.0 6.4 0.30 0.30 0.30 90 1011.1
20260502233030 23 9 0.0 0.0 0.30 0.30 0.30 90 1011.3
20260502232529 23 9 0.0 1.6 0.30 0.30 0.30 90 1011.1
20260502232029 23 9 0.0 4.8 0.30 0.30 0.30 89 1011.1
20260502231529 23 9 0.0 4.8 0.30 0.30 0.30 88 1011.0
20260502231030 23 18 0.0 4.8 0.30 0.30 0.30 87 1011.2
20260502230530 23 19 0.0 11.3 0.28 0.28 0.28 86 1011.1
20260502230030 24 44 1.6 19.3 0.25 0.25 0.25 83 1011.2
20260502225528 25 326 4.8 19.3 0.00 0.00 0.00 78 1011.0
20260502225027 27 42 3.2 20.9 0.00 0.00 0.00 74 1011.0
20260502224527 28 31 6.4 20.9 0.00 0.00 0.00 80 1010.6
20260502224027 28 271 4.8 12.9 0.00 0.00 0.00 79 1009.9
20260502223527 28 205 3.2 16.1 0.00 0.00 0.00 79 1009.9
20260502223027 28 215 4.8 16.1 0.00 0.00 0.00 79 1009.7
20260502222526 28 117 4.8 14.5 0.00 0.00 0.00 80 1009.6
20260502222025 28 198 1.6 12.9 0.00 0.00 0.00 80 1009.7
20260502221526 28 156 3.2 16.1 0.00 0.00 0.00 80 1009.8
20260502221027 28 204 6.4 16.1 0.00 0.00 0.00 79 1009.7
20260502220526 28 184 6.4 17.7 0.00 0.00 0.00 79 1009.8
20260502220026 28 157 8.0 17.7 0.00 0.00 0.00 79 1009.8
20260502215527 28 246 6.4 22.5 0.00 0.00 0.00 79 1009.8
20260502215026 28 230 3.2 14.5 0.00 0.00 0.00 78 1009.8
20260502214538 28 194 4.8 12.9 0.00 0.00 0.00 77 1009.8
20260502214025 28 244 3.2 12.9 0.00 0.00 0.00 76 1009.7
20260502213525 29 221 3.2 19.3 0.00 0.00 0.00 76 1009.6
20260502213025 29 204 4.8 19.3 0.00 0.00 0.00 75 1009.4
20260502212524 29 222 4.8 17.7 0.00 0.00 0.00 75 1009.4
20260502212023 30 198 4.8 12.9 0.00 0.00 0.00 74 1009.4
20260502211532 30 188 1.6 14.5 0.00 0.00 0.00 73 1009.3
20260502211024 30 199 4.8 17.7 0.00 0.00 0.00 72 1009.2
20260502210524 30 285 4.8 16.1 0.00 0.00 0.00 71 1009.2
20260502210026 31 213 3.2 16.1 0.00 0.00 0.00 71 1009.3
20260502205525 31 280 1.6 16.1 0.00 0.00 0.00 70 1009.4
20260502205024 31 193 3.2 16.1 0.00 0.00 0.00 70 1009.2
20260502204524 31 201 3.2 12.9 0.00 0.00 0.00 70 1009.3
20260502204024 31 199 4.8 17.7 0.00 0.00 0.00 71 1009.2
20260502203523 31 134 3.2 17.7 0.00 0.00 0.00 70 1009.2
20260502203023 31 234 4.8 14.5 0.00 0.00 0.00 69 1009.1
20260502202522 31 258 4.8 16.1 0.00 0.00 0.00 67 1009.1
20260502202022 31 175 3.2 14.5 0.00 0.00 0.00 67 1009.3
20260502201522 31 190 3.2 19.3 0.00 0.00 0.00 67 1009.2
20260502201023 31 225 6.4 19.3 0.00 0.00 0.00 66 1009.2
20260502200521 31 198 4.8 16.1 0.00 0.00 0.00 66 1009.1
20260502200022 31 218 4.8 14.5 0.00 0.00 0.00 65 1008.9
20260502195521 32 206 6.4 14.5 0.00 0.00 0.00 64 1008.9
20260502195021 32 166 4.8 14.5 0.00 0.00 0.00 63 1009.0
20260502194520 32 216 3.2 14.5 0.00 0.00 0.00 65 1009.1
20260502194020 32 204 3.2 16.1 0.00 0.00 0.00 63 1009.2
20260502193521 32 230 3.2 17.7 0.00 0.00 0.00 64 1009.2
20260502193019 32 173 4.8 17.7 0.00 0.00 0.00 65 1009.2
20260502192519 32 159 4.8 12.9 0.00 0.00 0.00 64 1009.3
20260502192022 32 202 8.0 16.1 0.00 0.00 0.00 62 1009.5
20260502191521 32 187 3.2 12.9 0.00 0.00 0.00 66 1009.6
20260502191017 32 190 4.8 9.7 0.00 0.00 0.00 66 1009.7
20260502190516 31 205 3.2 16.1 0.00 0.00 0.00 69 1009.8
20260502190016 31 196 3.2 22.5 0.00 0.00 0.00 69 1009.9
20260502185515 31 238 6.4 22.5 0.00 0.00 0.00 68 1009.9
20260502185015 31 209 4.8 12.9 0.00 0.00 0.00 67 1009.9
20260502184515 31 202 6.4 12.9 0.00 0.00 0.00 69 1010.1
20260502184014 31 193 3.2 14.5 0.00 0.00 0.00 70 1010.1
20260502183513 31 279 3.2 14.5 0.00 0.00 0.00 70 1010.1
20260502183013 31 155 3.2 16.1 0.00 0.00 0.00 71 1010.2
20260502182515 31 168 4.8 22.5 0.00 0.00 0.00 72 1010.2
20260502182012 31 204 6.4 22.5 0.00 0.00 0.00 72 1010.3
20260502181511 31 232 6.4 16.1 0.00 0.00 0.00 71 1010.2
20260502181011 31 162 6.4 19.3 0.00 0.00 0.00 72 1010.3
20260502180512 30 196 8.0 24.1 0.00 0.00 0.00 72 1010.2
20260502170508 31 187 3.2 12.9 0.00 0.00 0.00 72 1010.5
20260502164005 30 155 6.4 20.9 0.00 0.00 0.00 74 1010.6
20260502163505 30 275 3.2 16.1 0.00 0.00 0.00 74 1010.6
20260502163005 30 223 4.8 17.7 0.00 0.00 0.00 75 1010.5
20260502162503 30 192 6.4 17.7 0.00 0.00 0.00 74 1010.5
20260502162002 30 210 3.2 17.7 0.00 0.00 0.00 76 1010.5
20260502161502 30 197 6.4 17.7 0.00 0.00 0.00 74 1010.6
20260502161003 30 157 4.8 19.3 0.00 0.00 0.00 75 1010.5
20260502160501 30 194 8.0 24.1 0.00 0.00 0.00 74 1010.5
20260502152100 30 201 4.8 16.1 0.00 0.00 0.00 75 1010.2
20260502151558 30 190 4.8 16.1 0.00 0.00 0.00 76 1010.2
20260502151056 30 211 4.8 16.1 0.00 0.00 0.00 76 1010.2
20260502150554 30 219 4.8 16.1 0.00 0.00 0.00 76 1010.2
20260502130542 27 173 1.6 8.0 0.00 0.00 0.00 85 1009.6
20260502123532 25 103 0.0 4.8 0.00 0.00 0.00 88 1009.6
20260502123031 24 102 0.0 4.8 0.00 0.00 0.00 89 1009.6
20260502122527 24 101 0.0 3.2 0.00 0.00 0.00 89 1009.4
20260502122025 23 101 0.0 3.2 0.00 0.00 0.00 89 1009.4
20260502121536 23 102 0.0 3.2 0.00 0.00 0.00 90 1009.4
20260502121023 23 101 0.0 3.2 0.00 0.00 0.00 90 1009.5
20260502120522 23 101 0.0 4.8 0.00 0.00 0.00 90 1009.5
20260502115519 22 101 0.0 4.8 0.00 0.00 0.00 90 1009.3
20260502115018 22 101 0.0 4.8 0.00 0.00 0.00 90 1009.3
20260502114518 22 101 0.0 4.8 0.00 0.00 0.00 90 1009.4
20260502114017 22 101 0.0 4.8 0.00 0.00 0.00 90 1009.4
20260502113517 22 101 0.0 4.8 0.00 0.00 0.00 90 1009.3
20260502113018 22 101 0.0 3.2 0.00 0.00 0.00 90 1009.3
20260502112516 22 101 0.0 1.6 0.00 0.00 0.00 90 1009.4
20260502112017 22 101 0.0 0.0 0.00 0.00 0.00 90 1009.5
20260502111517 22 101 0.0 0.0 0.00 0.00 0.00 90 1009.4
20260502111016 22 101 0.0 0.0 0.00 0.00 0.00 90 1009.4
20260502110516 22 101 0.0 0.0 0.00 0.00 0.00 90 1009.4
20260502110019 22 101 0.0 0.0 0.00 0.00 0.00 91 1009.4
20260502105516 22 101 0.0 0.0 0.00 0.00 0.00 91 1009.4
20260502105016 22 101 0.0 3.2 0.00 0.00 0.00 91 1009.4
20260502104515 22 101 0.0 3.2 0.00 0.00 0.00 91 1009.4
20260502104017 22 101 0.0 0.0 0.00 0.00 0.00 91 1009.4
20260502103515 22 101 0.0 0.0 0.00 0.00 0.00 91 1009.3
20260502103019 22 101 0.0 0.0 0.00 0.00 0.00 91 1009.3
20260502102514 22 101 0.0 0.0 0.00 0.00 0.00 91 1009.2
20260502102014 21 101 0.0 0.0 0.00 0.00 0.00 90 1009.3
20260502101514 21 101 0.0 0.0 0.00 0.00 0.00 90 1009.3
20260502101012 21 101 0.0 0.0 0.00 0.00 0.00 90 1009.4
20260502100512 21 101 0.0 0.0 0.00 0.00 0.00 90 1009.4
20260502091510 21 101 0.0 3.2 0.00 0.00 0.00 89 1009.6
20260502091009 21 101 0.0 0.0 0.00 0.00 0.00 89 1009.7
20260502090508 21 101 0.0 0.0 0.00 0.00 0.00 89 1009.6
20260502071505 21 213 0.0 0.0 0.00 0.00 0.00 88 1009.8
20260502071004 21 213 0.0 0.0 0.00 0.00 0.00 88 1009.8
20260502070504 21 213 0.0 0.0 0.00 0.00 0.00 88 1009.8
20260502070010 21 213 0.0 0.0 0.00 0.00 0.00 88 1009.7
20260502065505 21 213 0.0 0.0 0.00 0.00 0.00 88 1009.7
20260502065007 21 213 0.0 0.0 0.00 0.00 0.00 88 1009.7
20260502064505 21 213 0.0 0.0 0.00 0.00 0.00 88 1009.7
20260502064004 21 213 0.0 0.0 0.00 0.00 0.00 88 1009.6
20260502063503 21 213 0.0 0.0 0.00 0.00 0.00 88 1009.6
20260502063006 21 213 0.0 0.0 0.00 0.00 0.00 87 1009.7
20260502062503 21 213 0.0 0.0 0.00 0.00 0.00 87 1009.6
20260502062001 21 213 0.0 0.0 0.00 0.00 0.00 87 1009.7
20260502061502 21 213 0.0 0.0 0.00 0.00 0.00 87 1009.7
20260502061001 21 213 0.0 0.0 0.00 0.00 0.00 87 1009.7
20260502060502 21 213 0.0 0.0 0.00 0.00 0.00 87 1009.8
20260502060001 21 213 0.0 0.0 0.00 0.00 0.00 87 1009.8
20260502055602 21 213 0.0 0.0 0.00 0.00 0.00 87 1009.8
20260502055101 21 213 0.0 0.0 0.00 0.00 0.00 87 1009.9
20260502054604 21 213 0.0 0.0 0.00 0.00 0.00 87 1010.0
20260502054058 21 213 0.0 0.0 0.00 0.00 0.00 87 1010.0
20260502053558 21 213 0.0 0.0 0.00 0.00 0.00 86 1010.1
20260502053059 21 213 0.0 0.0 0.00 0.00 0.00 86 1010.1
20260502052557 21 213 0.0 0.0 0.00 0.00 0.00 86 1010.1
20260502052100 21 213 0.0 0.0 0.00 0.00 0.00 86 1010.2
20260502051556 21 213 0.0 0.0 0.00 0.00 0.00 85 1010.3
20260502051056 21 213 0.0 0.0 0.00 0.00 0.00 86 1010.3
20260502050554 21 213 0.0 0.0 0.00 0.00 0.00 85 1010.3
20260502050054 21 213 0.0 0.0 0.00 0.00 0.00 85 1010.3
20260502045556 21 213 0.0 0.0 0.00 0.00 0.00 85 1010.3
20260502045053 22 213 0.0 0.0 0.00 0.00 0.00 85 1010.2
20260502044554 22 213 0.0 0.0 0.00 0.00 0.00 85 1010.2
20260502044052 22 213 0.0 0.0 0.00 0.00 0.00 85 1010.3
20260502043552 22 213 0.0 0.0 0.00 0.00 0.00 85 1010.3
20260502043056 22 213 0.0 0.0 0.00 0.00 0.00 84 1010.2
20260502042551 22 213 0.0 0.0 0.00 0.00 0.00 84 1010.3
20260502042050 22 213 0.0 0.0 0.00 0.00 0.00 83 1010.3
20260502041550 22 213 0.0 0.0 0.00 0.00 0.00 83 1010.2
20260502041048 22 213 0.0 0.0 0.00 0.00 0.00 83 1010.2
20260502040547 22 213 0.0 0.0 0.00 0.00 0.00 83 1010.2
20260502040046 22 213 0.0 0.0 0.00 0.00 0.00 82 1010.2
20260502035549 22 213 0.0 0.0 0.00 0.00 0.00 82 1010.2
20260502035046 23 213 0.0 0.0 0.00 0.00 0.00 82 1010.3